Location: C�mpuri de-Sus
(45.9500°N, 22.5500°E)
Time: 13:14:04
(UTC+00:00)

Cosmos 724 - Pass Details

Date: 24 October 2021
Orbit: 857 x 937 km, 65.6° (Epoch: 06 December)

Event Time Altitude Azimuth Distance (km) Brightness Sun altitude
Rises 16:00:41 0° 324° (NW) 3,530 7.8 -6.3°
Reaches altitude 10° 16:03:13 10° 323° (NW) 2,573 7.1 -6.7°
Maximum altitude 16:09:11 80° 238° (WSW) 898 4.5 -7.8°
Drops below altitude 10° 16:14:59 10° 152° (SSE) 2,507 6.5 -8.8°
Sets 16:17:26 0° 151° (SSE) 3,433 7.2 -9.2°
